COSMOS 1691 DEB, 16271

Orbit data source: Space-Track

COSMOS 1691 DEB, 16271 is space debris in LEO originally from a launch on Wed, 09 Oct 1985 UTC launched from the Plesetsk Missile And Space Complex (PKMTR). Debris objects in space refer to the collection of defunct objects orbiting the Earth. Examples of debris include non-operational satellites, rocket bodies, and fragments generated from explosions, collisions, or faulty payload assembly.

Loading next visibility...
Identifier
16271, 1985-094Q
Orbit
LEO
Country
Flag of CISCIS
Related business
Manufacturer
Unknown
Mission
Spacecraft
Bus & Motor
Unknown
Mass
Unknown
Launch date (UTC)
1985-10-09 (41 years ago)
Launch vehicle
Unknown
Launch site
Plesetsk Missile And Space Complex (PKMTR)
Object type
Payload
Rocket body
Debris
Shape & HBR
Unknown shape, 0.1 m
Radar Cross Section
Medium (>0.1 m² and <1 m²)

Expand to show TLE details & history
Last TLE update: 3 days ago

TLE from 3 days ago
0 COSMOS 1691 DEB
1 16271U 85094Q   26170.27634772  .00000032  00000-0  11780-3 0  9992
2 16271  82.6080 273.0447 0006805 124.0218 264.1557 12.63030068875770
Epoch: 2026-06-19T06:37Z
TLE epoch observation values (Epoch: 2026-06-19T06:37:56.443Z)
Latitude
27.88454°
Longitude
-90.03134°
Altitude
1,414.293 km
Speed
7.156 km/s
True Right ascension
18h 27m 50s
True Declination
27° 45' 17"
Sunlit
Object was in full shadow at epoch
Visualization orbit readout
Latitude
Unknown
Longitude
Unknown
Altitude
Unknown
Speed
Unknown
Apparent Right ascension
Unknown
Apparent Declination
Unknown
Sunlit
N/A
Visualization observer readout
Local Sidereal Time
02:18:51
Azimuth
Unknown
Elevation
Unknown
Doppler factor
Unknown
Orbital elements
Apogee altitude
1,413.08 km
Perigee altitude
1,402.483 km
Semi-major axis
7,785.918 km
Eccentricity
0.00068
Inclination
82.608°
RAAN
273.0447°
Arg. of periapsis
124.0218°
True anomaly
264.07813°
Mean anomaly
264.1557°
Eccentric anomaly
264.11692°
Mean motion
3.15921 °/min
Orbital period
113.95 mins
BSTAR
0.0001178
Loading maneuver chart data...
Computing Atmospheric mass density...
Loading historical data...
Loading historical data...
Loading historical data...
Loading historical data...
Loading historical data...
Loading historical data...
Loading historical data...

Documentation

Showing up to 5 results
|